Weather Roundup
Issued by NWS Corpus Christi, TX

Home | Current Version | Previous Version | Text Only | Print | Product List | Glossary On
Versions: 1 2 3 4 5 6 7 8 9 10 11 12 13 14 15 16 17 18 19 20 21 22 23 24 25 26 27 28 29 30 31 32 33 34 35 36 37 38 39 40 41 42 43 44 45 46 47 48 49 50
000
ASUS44 KCRP 162310
HRRCRP

SOUTH TEXAS REGIONAL WEATHER ROUNDUP
NATIONAL WEATHER SERVICE CORPUS CHRISTI TX
600 PM CDT WED APR 16 2014


TXZ229>244-170000-
...CORPUS CHRISTI AREA OBSERVATIONS...

CITY           SKY/WX    TMP DP  RH WIND       PRES   REMARKS
CORPUS CHRISTI CLOUDY    71  51  49 SE16G24   29.97F
NAS CORPUS CHR CLOUDY    69  53  56 SE17      29.97F
ROCKPORT       CLOUDY    67  52  58 SE13      29.99F
KINGSVILLE NAS CLOUDY    70  55  59 SE20G25   29.96S
ALICE          PTSUNNY   70  52  52 SE20G28   29.94S
FALFURRIAS     CLOUDY    75  55  49 E14G23    29.93S
$$

...VICTORIA AREA OBSERVATIONS...

CITY           SKY/WX    TMP DP  RH WIND       PRES   REMARKS
VICTORIA       PTSUNNY   67  50  54 SE18      29.99S
BEEVILLE       FAIR      72  47  41 SE15G24   29.95F
PLEASANTON     HVY RAIN  74  44  33 SE12G17   29.92F
SAN ANTONIO    PTSUNNY   74  44  34 S16G23    29.93S
$$

...LAREDO AREA OBSERVATIONS...

CITY           SKY/WX    TMP DP  RH WIND       PRES   REMARKS
LAREDO         PTSUNNY   76  46  34 SE15      29.91F
COTULLA        PTSUNNY   75  42  30 S10G21    29.89F
DEL RIO        CLOUDY    74  37  26 SE18G25   29.83F
MCALLEN        PTSUNNY   74  53  48 SE17G23   29.93R
HEBBRONVILLE   PTSUNNY   75  47  37 SE13G18   29.91S
$$

...OTHER TEXAS OBSERVATIONS...

CITY           SKY/WX    TMP DP  RH WIND       PRES   REMARKS
BROWNSVILLE    PTSUNNY   73  56  54 SE14      29.94S
HOUSTON        PTSUNNY   64  48  56 SE13      30.04S
COL. STATION   MOSUNNY   67  45  45 S17G24    30.00S
AUSTIN         PTSUNNY   71  47  42 SE20      29.95R
WACO           MOSUNNY   68  44  42 S21G26    29.94F
FORT WORTH     PTSUNNY   68  40  35 S20G33    29.93F
WICHITA FALLS  MOSUNNY   71  29  21 S23G30    29.83F
LUBBOCK        MOSUNNY   82  10   6 S25       29.70F
EL PASO        MOSUNNY   83   2   4 W9        29.75F
$$

...MARINE OBSERVATIONS...

STATION/POSITION TIME  SKY/WX   TEMP    WIND        PRES    VSBY  WAVE   SWELL
                                AIR SEA DIR/SP/G                  HT/PER HT/PER
                 (UTC)          (F)     (DEG/KT/KT) (MB)    (MI)  (FT/S) (FT/S)
PORT ARANSAS     2200            65 67  120/ 13/ 15 1015.8F
BUOY 90 E PORT A NOT AVBL
BUOY 45 SE BAFFI 2300            67 69  120/ 14/ 17 1014.6F         3/ 6
BUOY 200 E PT IS NOT AVBL
BUOY 15 E GALVES 2300            62 67  120/ 12/ 16 1017.1F         2/ 5
$$


USA.gov is the U.S. government's official web portal to all federal, state and local government web resources and services.